Probability
0 0 0 0 0 0 0 0 0 0 0 0 0 0 0 0 0 0 0 0 0 0 0 0 0 0 0 0 0 0 0 0 0 0 0 0 0 0
0 0 0 0 0 0 0 0 0 0 0 0 0 0 0 0 0 0 0 0 0 0 0 0 0 0 0 0 0 0 0 0 0 0 0 0 0 0
0 0 0 0 0 0 0 0 0 0 0 0 0 1 1 1 1 1 0 0 0 0 0 0 0 0 0 0 0 0 0 0 0 0 0 0 0 0
0 0 0 0 0 0 0 0 0 0 0 0 1 2 2 2 2 1 0 0 0 0 0 0 0 0 0 0 0 0 0 0 0 0 0 0 0 0
0 0 0 0 0 0 0 0 0 0 0 0 1 3 4 5 3 1 0 0 0 0 0 0 0 0 0 0 0 0 0 0 0 0 0 0 0 0
0 0 0 0 0 0 0 0 0 0 0 0 0 4 7 7 4 1 0 0 0 0 0 0 0 0 0 0 0 0 0 0 0 0 0 0 0 0
0 0 0 0 0 0 0 0 0 0 0 0 0 3 7 7 4 1 0 0 0 0 0 0 0 0 0 0 0 0 0 0 0 0 0 0 0 0
0 0 0 0 0 0 0 0 0 0 0 0 0 1 4 4 2 1 0 0 0 0 0 0 0 0 0 0 0 0 0 0 0 0 0 0 0 0
0 0 0 0 0 0 0 0 0 0 0 0 0 1 2 2 1 0 0 0 0 0 0 0 0 0 0 0 0 0 0 0 0 0 0 0 0 0
0 0 0 0 0 0 0 0 0 0 0 0 0 0 1 1 1 0 0 0 0 0 0 0 0 0 0 0 0 0 0 0 0 0 0 0 0 0
0 0 0 0 0 0 0 0 0 0 0 0 0 0 0 0 0 0 0 0 0 0 0 0 0 0 0 0 0 0 0 0 0 0 0 0 0 0
0 0 0 0 0 0 0 0 0 0 0 0 0 0 0 0 0 0 0 0 0 0 0 0 0 0 0 0 0 0 0 0 0 0 0 0 0 0
0 0 0 0 0 0 0 0 0 0 0 0 0 0 0 0 0 0 0 0 0 0 0 0 0 0 0 0 0 0 0 0 0 0 0 0 0 0
0 0 0 0 0 0 0 0 0 0 0 0 0 0 0 0 0 0 0 0 0 0 0 0 0 0 0 0 0 0 0 0 0 0 0 0 0 0
0 0 0 0 0 0 0 0 0 0 0 0 0 0 0 0 0 0 0 0 0 0 0 0 0 0 0 0 0 0 0 0 0 0 0 0 0 0
0 0 0 0 0 0 0 0 0 0 0 0 0 0 0 0 0 0 0 0 0 0 0 0 0 0 0 0 0 0 0 0 0 0 0 0 0 0
0 0 0 0 0 0 0 0 0 0 0 0 0 0 0 0 0 0 0 0 0 0 0 0 0 0 0 0 0 0 0 0 0 0 0 0 0 0
0 0 0 0 0 0 0 0 0 0 0 0 0 0 0 0 0 0 0 0 0 0 0 0 0 0 0 0 0 0 0 0 0 0 0 0 0 0
0 0 0 0 0 0 0 0 0 0 0 0 0 0 0 0 0 0 0 0 0 0 0 0 0 0 0 0 0 0 0 0 0 0 0 0 0 0
0 0 0 0 0 0 0 0 0 0 0 0 0 0 0 0 0 0 0 0 0 0 0 0 0 0 0 0 0 0 0 0 0 0 0 0 0 0
0 0 0 0 0 0 0 0 0 0 0 0 0 0 0 0 0 0 0 0 0 0 0 0 0 0 0 0 0 0 0 0 0 0 0 0 0 0
0 0 0 0 0 0 0 0 0 0 0 0 0 0 0 0 0 0 0 0 0 0 0 0 0 0 0 0 0 0 0 0 0 0 0 0 0 0
0 0 0 0 0 0 0 0 0 0 0 0 0 0 0 0 0 0 0 0 0 0 0 0 0 0 0 0 0 0 0 0 0 0 0 0 0 0
Wind_Speed
5 5 4 4 3 2 2 3 2 2 4 4 2 2 3 3 6 5 5 9 10 10 9 9 9 10 11 12 13 13 13 13 14 14 14 14 15 16
4 5 5 4 3 3 3 3 3 3 4 4 3 2 3 5 6 5 6 11 10 9 8 7 8 8 9 10 10 11 12 13 13 13 13 13 13 13
5 5 6 6 4 4 3 3 3 3 4 4 2 1 3 7 6 6 6 6 6 8 7 6 6 7 8 8 9 10 11 11 11 11 12 12 11 11
6 6 7 6 6 5 4 4 4 4 4 4 3 2 3 7 8 8 6 5 5 7 7 6 6 6 6 7 8 9 9 10 10 10 10 10 10 9
7 7 7 6 7 5 5 5 4 4 4 4 4 2 2 6 8 7 7 5 5 6 7 7 7 7 6 6 6 7 8 8 8 9 9 9 9 8
8 7 7 7 7 7 6 6 5 4 4 3 3 3 3 5 7 8 6 4 3 4 6 6 9 9 8 7 7 8 8 9 9 9 10 10 10 10
8 7 8 10 12 9 6 6 6 5 4 4 4 3 4 7 7 5 7 6 3 2 4 3 4 5 5 6 7 9 10 11 11 12 12 12 12 12
8 8 9 11 13 14 14 12 11 8 7 6 5 5 6 7 6 8 8 7 4 3 3 3 3 4 4 3 6 10 11 12 13 13 13 13 13 13
10 9 10 11 10 7 10 14 14 15 13 8 7 7 7 8 9 10 9 8 4 7 5 4 3 3 4 4 8 10 11 12 14 14 14 14 14 14
11 11 10 10 10 8 6 7 8 9 11 8 8 7 6 8 11 11 10 7 5 4 4 4 3 3 3 4 7 9 11 12 14 15 15 15 15 14
11 11 11 11 13 13 8 7 7 6 8 9 9 8 9 10 10 9 10 10 8 4 2 5 4 3 3 3 5 9 9 11 13 15 16 16 15 14
8 9 14 14 13 13 10 8 8 7 6 6 5 5 6 9 14 13 13 12 9 5 4 5 5 5 4 2 3 4 6 8 11 13 14 14 12 8
6 6 7 13 14 13 11 8 10 8 7 7 6 5 4 6 9 9 9 11 10 5 8 7 6 4 5 4 2 2 3 3 4 5 8 11 10 8
6 6 6 11 12 12 10 10 11 9 5 6 6 6 6 6 7 8 8 6 5 7 12 9 7 7 7 5 4 3 2 2 3 3 3 6 8 8
6 8 8 9 9 8 10 11 9 6 6 6 7 7 5 5 6 6 7 7 6 7 9 5 9 9 6 6 7 6 4 3 3 3 3 3 3 4
3 5 6 6 5 5 5 5 5 6 6 6 6 5 5 5 5 6 7 8 7 5 4 4 9 11 5 6 8 8 5 7 6 4 4 2 3 3
1 1 1 2 2 2 3 3 3 4 4 4 5 5 5 6 5 5 7 8 7 8 6 4 5 5 5 8 8 7 6 5 6 6 5 3 3 4
1 1 2 2 3 3 3 3 3 4 4 5 5 5 6 6 6 5 7 7 8 8 7 7 8 6 4 3 4 9 7 6 6 6 4 4 3 3
1 1 2 2 3 4 4 4 5 5 4 4 5 5 6 6 6 7 8 8 7 8 8 8 9 8 7 5 4 6 9 8 8 6 5 4 5 5
2 2 2 2 2 3 4 4 4 4 4 4 5 5 6 6 7 7 8 8 8 8 7 7 9 8 7 8 6 5 10 10 8 8 6 3 3 4
3 3 3 3 2 3 3 3 4 4 5 5 5 6 6 6 6 7 7 11 9 9 11 10 7 8 6 7 6 5 6 10 10 8 8 5 3 3
4 4 4 4 3 3 3 3 3 4 5 5 5 6 6 7 8 9 9 9 9 8 8 6 7 6 5 6 6 7 7 7 7 9 10 9 7 7
5 5 4 4 4 3 3 4 4 4 4 5 5 6 6 6 6 7 8 9 9 9 9 8 7 5 5 5 6 6 8 8 6 4 3 3 7 9
Wind_Direction
261 261 260 263 250 228 214 194 203 250 261 256 241 194 165 143 155 148 140 153 156 161 170 180 188 194 198 200 203 205 208 211 213 214 216 218 218 220
264 261 259 258 257 241 222 215 201 210 247 253 235 198 161 140 129 119 117 121 123 135 149 169 186 194 199 202 205 207 209 211 213 214 215 215 216 218
281 268 259 256 253 248 230 218 217 203 236 259 247 187 141 142 125 113 110 105 109 118 133 156 179 190 197 202 204 206 206 207 209 209 210 211 213 215
275 270 264 262 252 244 233 225 221 216 220 244 241 193 153 153 140 131 119 110 103 108 118 132 146 163 179 191 198 203 204 203 202 201 200 198 198 197
263 261 258 255 253 245 235 230 225 227 214 227 236 207 145 149 138 123 115 109 105 107 100 103 114 124 137 156 171 179 180 179 179 178 174 170 169 167
259 257 253 244 242 241 236 229 222 222 218 226 232 208 163 155 145 142 135 121 114 101 93 90 96 95 103 123 139 149 153 152 150 148 145 143 140 135
260 256 253 255 251 242 234 221 213 214 211 217 226 205 174 169 163 152 145 133 105 118 113 91 86 79 73 91 114 130 136 136 135 132 129 127 125 121
253 255 259 266 263 255 245 230 211 205 207 208 219 212 197 178 161 154 149 149 150 156 124 96 77 75 53 62 108 121 124 125 123 122 120 118 117 115
241 245 258 260 257 245 244 239 226 216 204 198 211 215 200 184 166 163 166 159 149 154 127 99 73 69 46 61 101 115 118 120 121 119 116 114 112 110
237 234 236 244 247 238 236 235 224 215 209 203 206 213 208 192 178 170 158 129 103 119 111 111 97 74 51 49 76 106 116 119 120 119 117 113 109 106
240 235 231 233 235 229 222 224 221 220 213 201 199 209 205 192 171 152 151 150 147 145 116 117 122 100 65 46 60 87 103 116 120 120 119 115 111 103
241 238 234 229 227 220 212 208 209 204 185 182 185 194 195 186 175 172 166 163 153 150 156 126 133 128 107 67 58 75 89 97 109 118 121 120 117 108
238 233 231 224 221 217 208 203 205 188 181 180 178 184 188 185 182 179 175 169 163 156 159 139 137 128 122 124 105 94 107 117 108 116 122 123 123 121
237 233 227 222 220 215 207 205 198 181 171 174 180 191 196 195 186 180 176 170 154 148 158 148 138 148 135 132 141 131 123 133 133 136 132 127 117 112
234 231 225 218 211 207 203 190 177 174 174 176 189 196 195 189 176 167 156 132 104 125 149 143 140 145 141 143 147 148 151 173 168 153 154 146 144 138
240 235 221 200 181 170 169 173 173 180 176 183 188 186 174 173 177 168 161 150 133 119 118 127 145 147 138 141 148 155 156 163 170 169 156 153 155 158
225 182 156 148 146 147 143 151 165 170 175 174 175 171 170 172 171 164 155 148 147 150 145 126 121 107 117 139 145 154 149 149 160 158 150 151 173 174
212 186 174 167 168 174 171 168 177 183 182 172 170 170 170 171 166 161 157 158 155 151 150 147 140 120 92 57 137 155 158 154 153 156 146 146 170 181
238 218 198 188 187 181 185 187 187 187 178 169 169 169 166 164 164 164 165 161 156 154 156 158 160 153 151 160 181 173 164 159 157 163 166 154 169 181
244 236 223 213 198 189 189 191 188 175 173 173 168 166 164 162 164 167 169 165 158 153 155 167 177 174 171 160 154 172 174 163 163 169 167 147 139 157
251 249 240 226 213 202 197 193 187 181 177 171 170 169 166 163 166 170 169 164 158 162 172 180 178 145 112 114 121 137 165 176 167 165 161 149 144 146
247 244 242 234 223 211 201 188 182 178 173 172 171 171 168 167 168 170 170 169 171 172 172 155 139 143 147 156 153 149 153 164 173 170 167 166 159 175
235 237 236 233 224 215 202 192 185 183 179 173 168 168 167 166 168 168 168 170 170 166 158 152 153 159 165 154 145 144 152 158 154 147 167 198 197 197